Weather in Arkhipovka

Russia / Ivanovo Oblast     56°39′46″N   41°15′21″E
temp.,
°C
wind,
m/s
gust,
m/s
humid.,
%
clouds,
%
prec.,
mm/h
press.,
hPa
HPBL,
m
9 december, thu
thu900:00−10n3895100 0.9 1023223
03:00−10n3995100 2.1 1023256
06:00−10n4995100 1.4 1023302
09:00−9n3992100 1.6 1024349
12:00−9n49925 0.0 1025303
15:00−11nnw39915 0.0 1026224
18:00−15nnw28965 0.0 1029137
21:00−17n269845 0.0 103097
10 december, fri
fri1000:00−18n259832 0.0 103270
03:00−18nne25985 0.0 103380
06:00−20nne241007 0.0 103449
09:00−20ne2310090 0.0 103556
12:00−13ene24929 0.0 1036136
15:00−14ne119747 0.0 103613
18:00−16ene289738 0.0 1037112
21:00−17ene259832 0.0 103872
11 december, sat
sat1100:00−17e28958 0.0 1039145
03:00−18e24965 0.0 103956
06:00−18e26965 0.0 1039104
09:00−17e29945 0.0 1040150
12:00−12ese310865 0.0 1039244
15:00−11ese29885 0.0 1039235
18:00−16e24965 0.0 104044
21:00−14ese210915 0.0 1040187
12 december, sun
sun1200:00−14ese310905 0.0 1040185
03:00−14ese28915 0.0 1041125
06:00−14se299118 0.0 1040132
09:00−14se28925 0.0 1040120
12:00−9sse3987100 0.0 1040201
15:00−10se2693100 0.0 1039101
18:00−11sse299399 0.0 1039139
21:00−13sse259694 0.0 103972
13 december, mon
mon1300:00−13sse259477 0.0 103980
03:00−14sse25939 0.0 103878
06:00−13sse279160 0.0 103797
09:00−13sse278934 0.0 1037104
12:00−8sse2985100 0.0 1036235
15:00−8se3888100 0.0 1035189
18:00−8sse31088100 0.0 1034198
21:00−7sse3988100 0.0 1033217